Station MNPV2 - 8639348 - Money Point, VA Image indicating link to RSS feed of recent meteorological observations for station MNPV2


Conditions at MNPV2 as of
(3:48 pm EDT)
1948 GMT on 05/24/2024:
     

Click on the graph icon in the table below to see a time series plot of the last five days of that observation.

5-day plot - Wind Direction Wind Direction (WDIR): S ( 170 deg true )
5-day plot - Wind Speed Wind Speed (WSPD): 4.1 kts
5-day plot - Wind Gust Wind Gust (GST): 7.0 kts
5-day plot - Atmospheric Pressure Atmospheric Pressure (PRES):29.84 in
5-day plot - Air Temperature Air Temperature (ATMP): 76.5 °F
5-day plot - Water Temperature Water Temperature (WTMP): 73.4 °F
5-day plot - Wind Speed at 10 Meters Wind Speed at 10 meters (WSPD10M): 3.9 kts
5-day plot - Wind Speed at 20 Meters Wind Speed at 20 meters (WSPD20M): 5.8 kts
5-day plot -  Wind Speed, Wind Gust and Atmospheric Pressure Combined plot of Wind Speed, Gust, and Air Pressure
NOS Water Level Observation Network Water Level
Previous observations
TIME
(EDT)
5-day plot - Wind Direction
WDIR
 
5-day plot - Wind Speed
WSPD
kts
5-day plot - Wind Gust
GST
kts
5-day plot - Wave Height
WVHT
ft
5-day plot - Dominant Wave Period
DPD
sec
5-day plot - Average Wave Period
APD
sec
5-day plot - Mean Wave Direction
MWD
 
5-day plot - Atmospheric Pressure
PRES
in
5-day plot - Pressure Tendency
PTDY
in
5-day plot - Air Temperature
ATMP
°F
5-day plot - Water Temperature
WTMP
°F
5-day plot - Dew Point
DEWP
°F
5-day plot - Salinity
SAL
psu
5-day plot - Visibility
VIS
nmi
5-day plot - Tide (above MLLW)
TIDE
ft
2024-05-24 03:42 pmSSW 6.0 9.9----29.84- 76.1 73.4----
2024-05-24 03:36 pm S 5.1 8.0----29.84- 75.9 73.2----
2024-05-24 03:30 pm S 6.0 8.9----29.84- 75.4 73.2----
2024-05-24 03:24 pm S 7.0 9.9----29.84- 75.2 73.2----
2024-05-24 03:18 pm SW 6.0 9.9----29.85- 75.2 73.2----
2024-05-24 03:12 pmSSW 7.0 12.0----29.85- 75.2 73.2----
2024-05-24 03:06 pm S 6.0 9.9----29.85- 75.2 73.0----
2024-05-24 03:00 pm S 8.0 12.0----29.85-0.05 75.0 73.0----
2024-05-24 02:54 pmWSW 7.0 8.9----29.85- 75.4 72.9----
2024-05-24 02:48 pm S 6.0 9.9----29.85- 74.8 72.9----
2024-05-24 02:42 pm S 5.1 9.9----29.85- 74.8 72.9----
2024-05-24 02:36 pmSSW 8.0 9.9----29.85- 74.7 72.9----
2024-05-24 02:30 pm S 5.1 8.0----29.85- 75.0 72.7----
2024-05-24 02:24 pm S 6.0 9.9----29.85- 74.8 72.9----
2024-05-24 02:18 pm S 5.1 7.0----29.85- 74.8 72.7----
2024-05-24 02:12 pmSSW 5.1 8.0----29.85- 74.3 72.7----
2024-05-24 02:06 pm S 4.1 5.1----29.85- 74.5 72.3----
2024-05-24 02:00 pmSSW 4.1 5.1----29.85-0.06 74.3 72.3----
2024-05-24 01:54 pm S 4.1 5.1----29.84- 74.1 72.3----
2024-05-24 01:48 pmSSE 5.1 5.1----29.84- 74.1 72.3----
2024-05-24 01:42 pmSSW 1.0 5.1----29.84- 74.7 72.3----
2024-05-24 01:36 pmSSW 1.9 5.1----29.84- 74.5 72.3----
2024-05-24 01:30 pm SW 1.9 2.9----29.85- 74.5 72.3----
2024-05-24 01:24 pm S 1.0 2.9----29.85- 74.5 72.3----
2024-05-24 01:18 pmWSW 1.9 2.9----29.85- 74.5 72.1----
2024-05-24 01:12 pmWSW 1.9 5.1----29.85- 74.3 72.0----
2024-05-24 01:06 pm SW 4.1 5.1----29.86- 74.1 72.0----
2024-05-24 01:00 pmWSW 4.1 6.0----29.86-0.01 74.1 72.0----
2024-05-24 12:54 pmWSW 4.1 6.0----29.87- 74.1 71.8----
2024-05-24 12:48 pm SW 4.1 6.0----29.88- 74.1 71.8----
2024-05-24 12:42 pm SW 4.1 7.0----29.88- 74.1 71.8----
2024-05-24 12:36 pm W 6.0 8.9----29.88- 73.9 71.8----
2024-05-24 12:30 pmWSW 4.1 6.0----29.88- 73.6 71.8----
2024-05-24 12:24 pm W 2.9 7.0----29.88- 73.4 71.8----
2024-05-24 12:18 pm W 5.1 7.0----29.88- 72.9 71.8----
2024-05-24 12:12 pmWSW 5.1 8.0----29.89- 72.3 71.6----
2024-05-24 12:06 pm SW 4.1 7.0----29.90- 72.3 71.8----
2024-05-24 12:00 pm SW 5.1 8.9----29.90+0.01 72.3 71.8----
2024-05-24 11:54 am SW 7.0 11.1----29.90- 72.3 71.8----
2024-05-24 11:48 amSSW 7.0 12.0----29.90- 72.3 71.8----
2024-05-24 11:42 amSSW 8.0 15.9----29.91- 72.1 71.8----
2024-05-24 11:36 amSSW 11.1 14.0----29.91- 74.1 71.8----
2024-05-24 11:30 amSSW 5.1 8.0----29.90- 75.6 71.8----
2024-05-24 11:24 am SW 6.0 8.9----29.90- 75.4 71.8----
2024-05-24 11:18 amSSW 5.1 8.0----29.90- 75.4 71.8----
2024-05-24 11:12 am SW 6.0 9.9----29.91- 75.4 71.8----
2024-05-24 11:06 amSSW 6.0 8.0----29.91- 75.4 71.8----
2024-05-24 11:00 am SW 5.1 12.0----29.91+0.01 75.6 71.8----
2024-05-24 10:54 am SW 6.0 8.9----29.91- 75.7 71.8----
2024-05-24 10:48 amWSW 5.1 7.0----29.90- 75.7 71.8----
2024-05-24 10:42 amWSW 6.0 8.0----29.90- 75.9 71.8----
2024-05-24 10:36 am W 5.1 6.0----29.89- 75.7 71.8----
2024-05-24 10:30 am W 5.1 7.0----29.89- 75.6 72.0----
2024-05-24 10:24 am W 6.0 8.0----29.89- 75.4 72.0----
2024-05-24 10:18 am SW 5.1 8.9----29.89- 75.4 72.0----
2024-05-24 10:12 am W 5.1 7.0----29.89- 75.4 72.0----
2024-05-24 10:06 amWSW 1.9 4.1----29.88- 75.4 72.0----
2024-05-24 10:00 amWNW 1.9 4.1----29.88-0.01 75.0 72.0----
2024-05-24 09:54 am SW 2.9 5.1----29.88- 74.5 72.0----
2024-05-24 09:48 amWSW 4.1 7.0----29.89- 74.1 72.0----
2024-05-24 09:42 am SW 4.1 6.0----29.89- 73.9 72.0----
2024-05-24 09:36 am SW 4.1 6.0----29.88- 73.6 72.1----
2024-05-24 09:30 am SW 5.1 7.0----29.88- 73.0 72.3----
2024-05-24 09:24 amWSW 2.9 6.0----29.89- 72.9 72.3----
2024-05-24 09:18 amSSW 5.1 6.0----29.89- 72.9 72.5----
2024-05-24 09:12 am SW 4.1 5.1----29.89- 72.5 72.5----
2024-05-24 09:06 amWSW 4.1 6.0----29.89- 72.1 72.5----
2024-05-24 09:00 am SW 4.1 6.0----29.89+0.03 72.0 72.5----
2024-05-24 08:54 amWSW 4.1 5.1----29.90- 71.8 72.5----
2024-05-24 08:48 amWSW 2.9 4.1----29.89- 71.4 72.5----
2024-05-24 08:42 amWSW 4.1 5.1----29.89- 71.1 72.5----
2024-05-24 08:36 amWSW 2.9 6.0----29.89- 71.1 72.5----
2024-05-24 08:30 amWSW 2.9 5.1----29.90- 70.9 72.5----
2024-05-24 08:24 amWSW 2.9 5.1----29.90- 70.5 72.5----
2024-05-24 08:18 amSSW 4.1 5.1----29.90- 70.3 72.5----
2024-05-24 08:12 am SW 1.9 6.0----29.90- 70.3 72.5----
2024-05-24 08:06 amWSW 2.9 6.0----29.90- 70.2 72.5----
2024-05-24 08:00 amSSW 4.1 5.1----29.90+0.04 70.2 72.5----
2024-05-24 07:54 amSSW 1.9 4.1----29.89- 70.2 72.5----
2024-05-24 07:48 am SW 4.1 5.1----29.90- 70.0 72.5----
2024-05-24 07:42 am SW 1.0 2.9----29.89- 69.8 72.5----
2024-05-24 07:36 am SW 1.9 6.0----29.89- 69.8 72.5----
2024-05-24 07:30 amWSW 4.1 7.0----29.90- 69.8 72.7----
2024-05-24 07:24 am SW 4.1 6.0----29.90- 69.6 72.7----
2024-05-24 07:18 am SW 4.1 5.1----29.89- 69.6 72.7----
2024-05-24 07:12 am SW 4.1 6.0----29.89- 69.4 72.7----
2024-05-24 07:06 am SW 4.1 7.0----29.88- 69.3 72.7----
2024-05-24 07:00 amWSW 4.1 6.0----29.89-0.01 69.3 72.7----
2024-05-24 06:54 amSSW 1.9 4.1----29.88- 69.3 72.7----
2024-05-24 06:48 am S 2.9 4.1----29.87- 69.3 72.7----
2024-05-24 06:42 amSSW 1.9 4.1----29.88- 69.3 72.7----
2024-05-24 06:36 amSSW 2.9 4.1----29.88- 69.3 72.5----
2024-05-24 06:30 am S 2.9 5.1----29.87- 69.1 72.5----
2024-05-24 06:24 am S 1.9 4.1----29.87- 69.1 72.5----
2024-05-24 06:18 amSSW 2.9 5.1----29.87- 69.3 72.5----
2024-05-24 06:12 am S 2.9 5.1----29.86- 69.1 72.5----
2024-05-24 06:06 am S 2.9 2.9----29.86- 68.9 72.5----
2024-05-24 06:00 am S 2.9 2.9----29.87-0.03 68.9 72.5----
2024-05-24 05:54 am- 0.0 1.9----29.87- 68.9 72.5----
2024-05-24 05:48 amWSW 1.0 2.9----29.87- 68.9 72.5----
2024-05-24 05:42 amWSW 2.9 6.0----29.87- 68.9 72.5----
2024-05-24 05:36 amWSW 4.1 5.1----29.87- 68.9 72.5----
2024-05-24 05:30 amSSW 2.9 6.0----29.86- 69.1 72.5----
2024-05-24 05:24 amSSW 5.1 7.0----29.86- 69.3 72.5----
2024-05-24 05:18 am S 2.9 2.9----29.86- 69.3 72.5----
2024-05-24 05:12 am S 2.9 2.9----29.86- 69.3 72.5----
2024-05-24 05:06 am- 0.0 1.9----29.86- 69.4 72.5----
2024-05-24 05:00 am- 0.0 4.1----29.86-0.03 69.4 72.5----
2024-05-24 04:54 am E 2.9 4.1----29.85- 69.6 72.5----
2024-05-24 04:48 am E 1.9 7.0----29.85- 69.4 72.5----
2024-05-24 04:42 am SE 6.0 7.0----29.86- 69.4 72.5----
2024-05-24 04:36 amSSE 5.1 6.0----29.88- 69.3 72.5----
2024-05-24 04:30 amSSW 4.1 7.0----29.89- 69.1 72.5----
2024-05-24 04:24 am SW 5.1 8.9----29.90- 69.3 72.5----
2024-05-24 04:18 am SW 7.0 13.0----29.90- 69.3 72.5----
2024-05-24 04:12 am SW 7.0 9.9----29.91- 69.4 72.5----
2024-05-24 04:06 amWSW 8.9 15.0----29.91- 69.6 72.5----
2024-05-24 04:00 amWSW 7.0 11.1----29.90+0.00 69.8 72.5----
2024-05-24 03:54 amWSW 6.0 8.0----29.90- 69.8 72.5----
2024-05-24 03:48 amWSW 5.1 7.0----29.90- 70.2 72.5----
2024-05-24 03:42 am W 6.0 8.0----29.90- 70.3 72.3----
2024-05-24 03:36 am W 5.1 8.0----29.90- 69.6 72.3----
2024-05-24 03:30 am W 7.0 9.9----29.90- 69.8 72.3----
2024-05-24 03:24 am W 7.0 9.9----29.90- 69.8 72.3----
2024-05-24 03:18 amWNW 7.0 13.0----29.90- 69.6 72.3----
2024-05-24 03:12 amWNW 6.0 13.0----29.90- 70.0 72.3----
2024-05-24 03:06 am W 8.9 13.0----29.90- 70.7 72.3----
2024-05-24 03:00 am W 6.0 9.9----29.90+0.00 70.9 72.3----
2024-05-24 02:54 am W 8.9 12.0----29.89- 71.2 72.3----
2024-05-24 02:48 am W 7.0 12.0----29.90- 72.0 72.3----
2024-05-24 02:42 am W 6.0 8.9----29.90- 72.7 72.3----
2024-05-24 02:36 am W 8.0 12.0----29.90- 72.9 72.3----
2024-05-24 02:30 am W 5.1 7.0----29.89- 72.5 72.1----
2024-05-24 02:24 am SW 2.9 4.1----29.89- 72.1 72.1----
2024-05-24 02:18 amSSW 2.9 5.1----29.88- 72.1 72.1----
2024-05-24 02:12 amSSW 2.9 5.1----29.89- 72.3 72.1----
2024-05-24 02:06 am SW 2.9 6.0----29.89- 72.5 72.1----
2024-05-24 02:00 am SW 4.1 5.1----29.89-0.01- 72.1----
2024-05-24 01:54 am SW 2.9 4.1----29.89-- 72.1----
2024-05-24 01:48 amSSW 2.9 4.1----29.90- 72.7 72.1----
2024-05-24 01:42 amSSW 2.9 4.1----29.90- 72.9 72.1----
2024-05-24 01:36 amSSW 2.9 4.1----29.90- 73.0 72.1----
2024-05-24 01:30 am SW 4.1 6.0----29.90- 73.2 72.1----
2024-05-24 01:24 am SW 4.1 6.0----29.90- 73.2 72.1----
2024-05-24 01:18 amSSW 2.9 6.0----29.90- 73.2 72.1----
2024-05-24 01:12 amSSW 4.1 6.0----29.91- 73.4 72.1----
2024-05-24 01:06 amSSW 2.9 6.0----29.90- 73.6 72.1----
2024-05-24 01:00 amSSW 4.1 6.0----29.91+0.00 73.9 72.1----
2024-05-24 12:54 am SW 2.9 4.1----29.90- 74.3 72.1----
2024-05-24 12:48 amWSW 2.9 5.1----29.90-- 72.1----
2024-05-24 12:42 am W 2.9 5.1----29.90-- 72.1----
2024-05-24 12:36 am W 4.1 5.1----29.90-- 72.1----
2024-05-24 12:30 amWSW 2.9 5.1----29.90- 75.4 72.1----
2024-05-24 12:24 am W 4.1 6.0----29.90- 75.6 72.1----
2024-05-24 12:18 amWSW 5.1 6.0----29.90- 75.9 72.1----
2024-05-24 12:12 amWSW 5.1 6.0----29.90- 75.9 72.1----
2024-05-24 12:06 amWSW 5.1 7.0----29.90- 75.9 72.1----
2024-05-24 12:00 amWSW 4.1 6.0----29.90+0.01 76.1 72.1----
2024-05-23 11:54 pmWSW 4.1 6.0----29.90- 76.3 72.1----
2024-05-23 11:48 pmWSW 5.1 7.0----29.90- 76.8 72.1----
2024-05-23 11:42 pmWSW 5.1 7.0----29.90- 77.0 72.1----
2024-05-23 11:36 pmWSW 5.1 8.0----29.90- 77.4 72.1----
2024-05-23 11:30 pmWSW 5.1 7.0----29.91- 77.4 72.1----
2024-05-23 11:24 pmWSW 4.1 6.0----29.91- 77.4 72.1----
2024-05-23 11:18 pmWSW 4.1 5.1----29.91- 77.2 72.1----
2024-05-23 11:12 pm SW 4.1 5.1----29.91- 77.4 72.1----
2024-05-23 11:06 pmSSW 2.9 5.1----29.90- 77.2 72.1----
2024-05-23 11:00 pmSSW 1.9 4.1----29.91+0.02 77.2 72.1----
2024-05-23 10:54 pm SW 1.9 2.9----29.91- 77.4 72.3----
2024-05-23 10:48 pm SW 2.9 4.1----29.91- 77.4 72.3----
2024-05-23 10:42 pmSSW 4.1 6.0----29.91- 77.4 72.3----
2024-05-23 10:36 pmSSW 1.9 4.1----29.91- 77.4 72.3----
2024-05-23 10:30 pm S 4.1 5.1----29.91- 77.4 72.3----
2024-05-23 10:24 pm S 2.9 4.1----29.91- 77.0 72.3----
2024-05-23 10:18 pmSSW 1.0 1.9----29.91- 75.6 72.5----
2024-05-23 10:12 pm- 0.0 1.0----29.90- 75.4 72.5----
2024-05-23 10:06 pm- 0.0 1.0----29.90- 75.9 72.5----
2024-05-23 10:00 pm- 0.0 1.0----29.90+0.01 76.1 72.5----
2024-05-23 09:54 pm- 0.0 1.0----29.90- 76.5 72.5----
2024-05-23 09:48 pm- 0.0 0.0----29.90- 77.0 72.5----
2024-05-23 09:42 pm- 0.0 1.0----29.90- 77.0 72.5----
2024-05-23 09:36 pm SE 1.0 1.0----29.90- 77.2 72.5----
2024-05-23 09:30 pm- 0.0 1.0----29.89- 77.5 72.5----
2024-05-23 09:24 pmSSE 1.0 1.0----29.89- 77.9 72.5----
2024-05-23 09:18 pm- 0.0 1.0----29.89- 78.1 72.5----
2024-05-23 09:12 pm- 0.0 0.0----29.89- 77.9 72.5----
2024-05-23 09:06 pm- 0.0 0.0----29.89- 78.4 72.5----
2024-05-23 09:00 pm- 0.0 1.0----29.89+0.00 79.2 73.0----
2024-05-23 08:54 pm SE 1.0 2.9----29.88- 80.1 73.0----
2024-05-23 08:48 pm- 0.0 1.9----29.88- 80.2 73.0----
2024-05-23 08:42 pm- 0.0 4.1----29.88- 80.4 73.0----
2024-05-23 08:36 pm E 1.9 4.1----29.88- 80.6 73.0----
2024-05-23 08:30 pm E 1.9 5.1----29.88- 81.0 73.0----
2024-05-23 08:24 pm NE 2.9 6.0----29.88- 81.1 73.0----
2024-05-23 08:18 pm NE 2.9 5.1----29.88- 81.5 72.9----
2024-05-23 08:12 pm NE 4.1 5.1----29.89- 81.9 73.0----
2024-05-23 08:06 pm NE 2.9 5.1----29.89- 82.0 73.0----
2024-05-23 08:00 pmNNE 2.9 5.1----29.88+0.00 82.0 73.0----
2024-05-23 07:54 pm NE 1.9 4.1----29.89- 82.4 73.0----
2024-05-23 07:48 pmNNE 1.9 4.1----29.89- 82.2 73.0----
2024-05-23 07:42 pmNNE 2.9 2.9----29.89- 82.4 73.0----
2024-05-23 07:36 pm- 0.0 1.9----29.89- 82.6 73.0----
2024-05-23 07:30 pm NE 1.0 2.9----29.89- 83.3 72.9----
2024-05-23 07:24 pm NE 1.0 2.9----29.89- 83.3 72.9----
2024-05-23 07:18 pm NE 1.9 4.1----29.89- 83.3 72.9----
2024-05-23 07:00 pm NE 1.9 4.1----29.89+0.00 83.5 72.9----
2024-05-23 06:54 pm NE 1.9 4.1----29.89- 83.5 72.9----
2024-05-23 06:48 pmNNE 1.9 7.0----29.89- 83.5 72.9----
2024-05-23 06:42 pmNNE 2.9 7.0----29.89- 83.7 72.9----
2024-05-23 06:36 pmNNE 6.0 8.9----29.89- 83.7 72.9----
2024-05-23 06:30 pmNNE 4.1 7.0----29.88- 84.2 72.9----
2024-05-23 06:24 pm N 5.1 7.0----29.88- 84.4 72.9----
2024-05-23 06:18 pm N 6.0 14.0----29.88- 84.7 72.9----
2024-05-23 06:12 pm W 7.0 11.1----29.88- 86.2 72.9----
2024-05-23 06:06 pm W 8.0 12.0----29.88- 86.4 73.0----
2024-05-23 06:00 pmNNW 1.9 5.1----29.88-0.03 85.5 73.6----
2024-05-23 05:54 pmNNW 2.9 5.1----29.88- 85.3 73.6----
2024-05-23 05:48 pm NW 2.9 6.0----29.88- 85.5 73.6----
2024-05-23 05:42 pmNNE 5.1 7.0----29.88- 85.3 73.6----
2024-05-23 05:36 pmNNW 4.1 11.1----29.88- 85.3 73.6----
2024-05-23 05:30 pmWNW 5.1 11.1----29.88- 86.4 73.6----
2024-05-23 05:24 pmWNW 5.1 9.9----29.89- 86.2 73.8----
2024-05-23 05:18 pm W 5.1 8.0----29.89- 86.2 73.9----
2024-05-23 05:12 pm W 6.0 8.9----29.89- 85.6 73.9----
2024-05-23 05:06 pm W 5.1 9.9----29.88- 85.8 73.8----
2024-05-23 05:00 pm W 8.0 8.9----29.88-0.04 86.0 73.9----
2024-05-23 04:54 pmWNW 6.0 8.0----29.88- 86.0 73.9----
2024-05-23 04:48 pmWNW 7.0 8.9----29.88- 86.2 73.9----
2024-05-23 04:42 pmWNW 6.0 9.9----29.88- 86.5 73.9----
2024-05-23 04:36 pm W 6.0 8.0----29.88- 86.0 73.9----
2024-05-23 04:30 pm W 6.0 8.0----29.88- 86.0 74.1----
2024-05-23 04:24 pm W 5.1 8.9----29.88- 86.5 74.1----
2024-05-23 04:18 pm W 8.0 12.0----29.88- 86.0 73.9----
2024-05-23 04:12 pm SW 6.0 9.9----29.88- 86.4 73.9----
2024-05-23 04:06 pmWSW 6.0 8.0----29.88- 86.2 73.8----
2024-05-23 04:00 pm W 7.0 8.9----29.89-0.04 85.8 73.6----
2024-05-23 03:54 pm W 5.1 7.0----29.88- 86.4 74.1----